Location: Melbourne
(37.8170°S, 144.9670°E)
Time: 04:30:40
(UTC+10:00)

Explorer 11/Cluster Stage 4 - Visible Passes

Search period start: 21 August 2014 00:00
Search period end: 31 August 2014 00:00
Orbit: 468 x 1284 km, 28.8° (Epoch: 19 August)

Date Brightness Start Highest point End Pass type
(mag) Time Alt. Az. Time Alt. Az. Time Alt. Az.
21 Aug 9.3 19:17:58 10° WNW 19:24:12 23° NNW 19:30:12 10° NNE visible
22 Aug 9.5 19:11:32 10° WNW 19:17:19 21° NNW 19:22:56 10° NNE visible
23 Aug 9.6 19:05:16 10° WNW 19:10:25 18° NNW 19:15:29 10° N visible
24 Aug 9.7 18:59:14 10° WNW 19:03:31 15° NNW 19:07:47 10° N visible
25 Aug 9.9 18:53:40 10° NW 18:56:37 12° NNW 18:59:35 10° N visible
